National Weather Service Raw Text Product

Displaying AFOS PIL: RWRIA Received: 2017-08-13 07:00 UTC


153 
ASUS43 KDMX 130706
RWRIA 

WEATHER ROUNDUP FOR IOWA
NATIONAL WEATHER SERVICE DES MOINES IA
200 AM CDT SUN AUG 13 2017

NOTE: "FAIR" INDICATES FEW OR NO CLOUDS BELOW 12,000 FEET WITH NO
SIGNIFICANT WEATHER AND/OR OBSTRUCTIONS TO VISIBILITY.

* - THESE STATIONS ARE NOT NWS STATIONS...THUS NOT UNDER NWS
QUALITY CONTROL.  THEY ALSO DO NOT REPORT WEATHER SUCH 
AS PRECIPITATION OR FOG.  

IAZ001>003-012>014-020>022-031>034-043>046-130800-
   NORTHWEST IOWA
  
CITY           SKY/WX    TMP DP  RH WIND       PRES   REMARKS
CARROLL *      MOCLDY    63  61  94 SE6       30.04F                  
CHEROKEE *     CLOUDY    61  57  85 S6        30.02F                  
DENISON *      CLOUDY    63  57  82 SE3       30.05S                  
LE MARS *      CLOUDY    66  57  72 S8        30.00F                  
ORANGE CITY *  CLOUDY    64  57  77 SE8       29.99F                  
SHELDON *      CLOUDY    64  55  72 S9        29.99S                  
SIOUX CITY     CLOUDY    68  60  75 E6        30.01R                  
SPENCER        CLOUDY    64  57  78 S13       30.03F                  
STORM LAKE *   CLOUDY    61  55  82 SE7       30.05F                  
$$
 
IAZ055>058-069>071-079>083-090>094-130800-
   SOUTHWEST IOWA
  
CITY           SKY/WX    TMP DP  RH WIND       PRES   REMARKS
ATLANTIC *     CLOUDY    63  59  88 CALM      30.05R                  
AUDUBON *      CLOUDY    61  57  88 CALM      30.06S                  
CLARINDA *       N/A     57  57 100 CALM      30.07F                  
COUNCIL BLFS * CLOUDY    64  59  82 SE3       30.05R                  
CRESTON *      PTCLDY    63  54  72 CALM      30.07S                  
HARLAN  *      CLOUDY    63  61  94 CALM      30.08R                  
LAMONI         CLOUDY    64  55  72 S3        30.07R                  
RED OAK *      CLOUDY    61  59  94 CALM      30.05R                  
SHENANDOAH *     N/A     61  59  94 CALM      30.06R                  
$$
 
IAZ047>049-059>061-072>074-084-130800-
   CENTRAL IOWA
  
CITY           SKY/WX    TMP DP  RH WIND       PRES   REMARKS
AMES           MOCLDY    59  56  89 SE3       30.07S                  
ANKENY *       PTCLDY    63  55  77 CALM      30.07F                  
BOONE *        CLOUDY    61  55  82 SE7       30.06F                  
CHARITON *     PTCLDY    63  55  77 SE7       30.06S                  
DES MOINES     CLOUDY    67  55  65 E9        30.06S                  
GRINNELL*      CLOUDY    59  52  78 SE5       30.09S                  
KNOXVILLE *    CLOUDY    63  54  72 SE6       30.05F                  
MARSHALLTOWN   PTCLDY    57  53  86 E3        30.07F                  
NEWTON *       CLOUDY    59  52  77 SE7       30.08R                  
PELLA *        PTCLDY    60  53  77 SE3       30.08S                  
PERRY *          N/A     61  58  91 E5        30.06S                  
$$
 
IAZ004>006-015-016-023>025-035-036-130800-
   NORTH CENTRAL IOWA
  
CITY           SKY/WX    TMP DP  RH WIND       PRES   REMARKS
ALGONA *       CLOUDY    63  52  67 SE8       30.06F                  
CLARION *      CLOUDY    61  54  77 SE12      30.06F                  
ESTHERVILLE    CLOUDY    60  56  86 SE7       30.03F                  
FORT DODGE *   PTCLDY    61  52  72 SE6       30.07F                  
MASON CITY     MOCLDY    57  51  80 S3        30.08F                  
FOREST CITY *    N/A     55  52  88 SE3       30.06F                  
WEBSTER CITY * CLOUDY    57  54  88 SE5       30.05S                  
IOWA FALLS *     N/A     57  52  84 SE3       30.09F                  
$$

IAZ007>011-017>019-026>030-037>042-050>054-066-130800-
   NORTHEAST IOWA
  
CITY           SKY/WX    TMP DP  RH WIND       PRES   REMARKS
CEDAR RAPIDS   CLOUDY    55  55 100 CALM      30.07F                  
CHARLES CITY * MOCLDY    57  54  88 E5        30.08F                  
CLINTON *      CLEAR     55  53  93 N3        30.09S                  
DECORAH *      CLOUDY    54  52  94 CALM      30.09S                  
DUBUQUE        PTCLDY    53  51  93 CALM      30.09S                  
MONTICELLO *   CLEAR     52  52 100 CALM      30.08F                  
OELWEIN *      PTCLDY    54  54 100 SE5       30.09F                  
WATERLOO       PTCLDY    54  50  86 CALM      30.07F                  
$$
 
IAZ064-065-067-068-078-130800-
   EAST CENTRAL IOWA
  
CITY           SKY/WX    TMP DP  RH WIND       PRES   REMARKS
DAVENPORT      CLEAR     52  50  93 CALM      30.10S                  
IOWA CITY      PTCLDY    58  53  84 CALM      30.09F                  
MT. PLEASANT * CLEAR     55  54  95 CALM      30.08S                  
MUSCATINE *    CLEAR     55  52  88 CALM      30.08F                  
QUAD CITIES    CLEAR     55  51  86 CALM      30.08S                  
$$
 
IAZ062-063-075>077-085>089-095>099-130800-
   SOUTHEAST IOWA
  
CITY           SKY/WX    TMP DP  RH WIND       PRES   REMARKS
BURLINGTON     CLEAR     59  56  89 CALM      30.07F                  
FAIRFIELD *    CLEAR     55  50  82 CALM      30.07S                  
FORT MADISON * CLEAR     55  55 100 CALM      30.09S                  
KEOKUK *       CLEAR     61  55  82 CALM      30.07S                  
OSKALOOSA *      N/A     57  53  85 SE5       30.08S                  
CENTERVILLE *    N/A     59  55  88 CALM      30.09S                  
OTTUMWA        CLEAR     58  54  86 SE5       30.07S                  
WASHINGTON *   CLEAR     55  54  94 SE3       30.08F                  
$$

ABBREVIATIONS USED IN REMARKS
   TC - TEMPERATURES IN CELSIUS
  WCI - WIND CHILL INDEX
   HX - HEAT INDEX
  VSB - VISIBILITY  
$$

  

617 
ASUS43 KDMX 130701
RWRIA 

WEATHER ROUNDUP FOR IOWA
NATIONAL WEATHER SERVICE DES MOINES IA
200 AM CDT SUN AUG 13 2017

NOTE: "FAIR" INDICATES FEW OR NO CLOUDS BELOW 12,000 FEET WITH NO
SIGNIFICANT WEATHER AND/OR OBSTRUCTIONS TO VISIBILITY.

* - THESE STATIONS ARE NOT NWS STATIONS...THUS NOT UNDER NWS
QUALITY CONTROL.  THEY ALSO DO NOT REPORT WEATHER SUCH 
AS PRECIPITATION OR FOG.  

IAZ001>003-012>014-020>022-031>034-043>046-130800-
   NORTHWEST IOWA
  
CITY           SKY/WX    TMP DP  RH WIND       PRES   REMARKS
CARROLL *      MOCLDY    63  61  94 SE6       30.04F                  
CHEROKEE *     CLOUDY    61  57  85 S6        30.02F                  
DENISON *      CLOUDY    63  57  82 SE3       30.05S                  
LE MARS *      CLOUDY    66  57  72 S8        30.00F                  
ORANGE CITY *  CLOUDY    64  57  77 SE8       29.99F                  
SHELDON *      CLOUDY    64  55  72 S9        29.99S                  
SIOUX CITY     CLOUDY    68  60  75 E6        30.01R                  
SPENCER        CLOUDY    64  57  78 S13       30.03F                  
STORM LAKE *   CLOUDY    61  55  82 SE7       30.05F                  
$$
 
IAZ055>058-069>071-079>083-090>094-130800-
   SOUTHWEST IOWA
  
CITY           SKY/WX    TMP DP  RH WIND       PRES   REMARKS
ATLANTIC *     CLOUDY    63  59  88 CALM      30.05R                  
AUDUBON *      CLOUDY    61  57  88 CALM      30.06S                  
CLARINDA *       N/A     57  57 100 CALM      30.07F                  
COUNCIL BLFS * CLOUDY    64  59  82 SE3       30.05R                  
CRESTON *      PTCLDY    63  54  72 CALM      30.07S                  
HARLAN  *      CLOUDY    63  61  94 CALM      30.08R                  
LAMONI         CLOUDY    64  55  72 S3        30.07R                  
RED OAK *      CLOUDY    61  59  94 CALM      30.05R                  
SHENANDOAH *     N/A     61  59  94 CALM      30.06R                  
$$
 
IAZ047>049-059>061-072>074-084-130800-
   CENTRAL IOWA
  
CITY           SKY/WX    TMP DP  RH WIND       PRES   REMARKS
AMES           MOCLDY    59  56  89 SE3       30.07S                  
ANKENY *       PTCLDY    63  55  77 CALM      30.07F                  
BOONE *        CLOUDY    61  55  82 SE7       30.06F                  
CHARITON *     PTCLDY    63  55  77 SE7       30.06S                  
DES MOINES     CLOUDY    67  55  65 E9        30.06S                  
GRINNELL*      CLOUDY    59  52  78 SE5       30.09S                  
KNOXVILLE *    CLOUDY    63  54  72 SE6       30.05F                  
MARSHALLTOWN   PTCLDY    57  53  86 E3        30.07F                  
NEWTON *       CLOUDY    59  52  77 SE7       30.08R                  
PELLA *        PTCLDY    60  53  77 SE3       30.08S                  
PERRY *          N/A     61  58  91 E5        30.06S                  
$$
 
IAZ004>006-015-016-023>025-035-036-130800-
   NORTH CENTRAL IOWA
  
CITY           SKY/WX    TMP DP  RH WIND       PRES   REMARKS
ALGONA *       CLOUDY    63  52  67 SE8       30.06F                  
CLARION *      CLOUDY    61  54  77 SE12      30.06F                  
ESTHERVILLE    CLOUDY    60  56  86 SE7       30.03F                  
FORT DODGE *   PTCLDY    61  52  72 SE6       30.07F                  
MASON CITY     MOCLDY    57  51  80 S3        30.08F                  
FOREST CITY *    N/A     55  52  88 SE3       30.06F                  
WEBSTER CITY * CLOUDY    57  54  88 SE5       30.05S                  
IOWA FALLS *     N/A     57  52  84 SE3       30.09F                  
$$

IAZ007>011-017>019-026>030-037>042-050>054-066-130800-
   NORTHEAST IOWA
  
CITY           SKY/WX    TMP DP  RH WIND       PRES   REMARKS
CEDAR RAPIDS   CLOUDY    55  55 100 CALM      30.07F                  
CHARLES CITY * MOCLDY    57  54  88 E5        30.08F                  
CLINTON *      CLEAR     55  53  93 N3        30.09S                  
DECORAH *      CLOUDY    54  52  94 CALM      30.09S                  
DUBUQUE        PTCLDY    53  51  93 CALM      30.09S                  
MONTICELLO *   CLEAR     52  52 100 CALM      30.08F                  
OELWEIN *      PTCLDY    54  54 100 SE5       30.09F                  
WATERLOO       PTCLDY    54  50  86 CALM      30.07F                  
$$
 
IAZ064-065-067-068-078-130800-
   EAST CENTRAL IOWA
  
CITY           SKY/WX    TMP DP  RH WIND       PRES   REMARKS
DAVENPORT      CLEAR     52  50  93 CALM      30.10S                  
IOWA CITY      PTCLDY    58  53  84 CALM      30.09F                  
MUSCATINE *    CLEAR     55  52  88 CALM      30.08F                  
QUAD CITIES    CLEAR     55  51  86 CALM      30.08S                  
$$
 
IAZ062-063-075>077-085>089-095>099-130800-
   SOUTHEAST IOWA
  
CITY           SKY/WX    TMP DP  RH WIND       PRES   REMARKS
BURLINGTON     CLEAR     59  56  89 CALM      30.07F                  
FAIRFIELD *    CLEAR     55  50  82 CALM      30.07S                  
FORT MADISON * CLEAR     55  55 100 CALM      30.09S                  
KEOKUK *       CLEAR     61  55  82 CALM      30.07S                  
OSKALOOSA *      N/A     57  53  85 SE5       30.08S                  
OTTUMWA        CLEAR     58  54  86 SE5       30.07S                  
WASHINGTON *   CLEAR     55  54  94 SE3       30.08F                  
$$

ABBREVIATIONS USED IN REMARKS
   TC - TEMPERATURES IN CELSIUS
  WCI - WIND CHILL INDEX
   HX - HEAT INDEX
  VSB - VISIBILITY  
$$